This is the latest recevied weather packets stored in our database for station/object W0VI. If no packets are shown the sender has not sent any weather packets the latest 10 day(s).
| Time | Temp. | Humidity | Pressure | Rain* | Wind** | Luminosity | Snow |
|---|---|---|---|---|---|---|---|
| 1777900423 | 14.44° C | 48% | 997.7 hPa | 0 mm | - | 177 W/m² | - |
| 1777900120 | 14.44° C | 48% | 997.7 hPa | 0 mm | - | 169 W/m² | - |
| 1777899817 | 14.44° C | 46% | 997.3 hPa | 0 mm | - | 135 W/m² | - |
| 1777899514 | 14.44° C | 47% | 997.3 hPa | 0 mm | - | 143 W/m² | - |
| 1777899212 | 15° C | 51% | 997.5 hPa | 0 mm | - | 127 W/m² | - |
| 1777898909 | 15° C | 51% | 996.8 hPa | 0 mm | - | 121 W/m² | - |
| 1777898606 | 15° C | 52% | 997 hPa | 0 mm | - | 172 W/m² | - |
| 1777898303 | 15° C | 51% | 996.6 hPa | 0 mm | - | 108 W/m² | - |
| 1777898000 | 15° C | 51% | 996.7 hPa | 0 mm | - | 93 W/m² | - |
| 1777897696 | 15° C | 51% | 996.8 hPa | 0 mm | - | 73 W/m² | - |
| 1777897393 | 15° C | 50% | 996.7 hPa | 0 mm | - | 65 W/m² | - |
| 1777897089 | 15° C | 49% | 996.8 hPa | 0 mm | - | 63 W/m² | - |
| 1777896785 | 15° C | 49% | 996.5 hPa | 0 mm | - | 57 W/m² | - |
| 1777896483 | 15° C | 48% | 996.6 hPa | 0 mm | - | 46 W/m² | - |
| 1777896180 | 15° C | 47% | 996.5 hPa | 0 mm | - | 38 W/m² | - |
| 1777895878 | 15° C | 46% | 996.3 hPa | 0 mm | - | 37 W/m² | - |
| 1777895575 | 15° C | 46% | 996.4 hPa | 0 mm | - | 36 W/m² | - |
| 1777895273 | 15° C | 46% | 996.1 hPa | 0 mm | - | 30 W/m² | - |
| 1777894970 | 15° C | 45% | 996.1 hPa | 0 mm | - | 31 W/m² | - |
| 1777894667 | 15° C | 45% | 995.9 hPa | 0 mm | - | 31 W/m² | - |
| 1777894364 | 15° C | 45% | 995.8 hPa | 0 mm | - | 26 W/m² | - |
| 1777894061 | 15° C | 45% | 995.3 hPa | 0 mm | - | 21 W/m² | - |
| 1777893757 | 15° C | 45% | 995.6 hPa | 0 mm | - | 17 W/m² | - |
| 1777893455 | 15° C | 44% | 995.4 hPa | 0 mm | - | 12 W/m² | - |
| 1777893151 | 15° C | 44% | 995.5 hPa | 0 mm | - | 8 W/m² | - |
* Rain latest hour (hover to see other rain measurements)
** Current wind speed in m/s (hover to see current wind gust speed)